NOAA 16 DEB, 41343

Orbit data source: Space-Track

NOAA 16 DEB, 41343 is space debris in SSO originally from a launch on Thu, 21 Sep 2000 UTC launched from the Air Force Western Test Range (AFWTR). Debris objects in space refer to the collection of defunct objects orbiting the Earth. Examples of debris include non-operational satellites, rocket bodies, and fragments generated from explosions, collisions, or faulty payload assembly.

Loading next visibility...
Identifier
41343, 2000-055HL
Orbit
SSO
Country
Flag of USUS
Related business
Manufacturer
Unknown
Mission
Spacecraft
Bus & Motor
Unknown
Mass
Unknown
Launch date (UTC)
2000-09-21 (26 years ago)
Launch vehicle
Unknown
Launch site
Air Force Western Test Range (AFWTR)
Object type
Payload
Rocket body
Debris
Shape & HBR
Unknown shape, 0.1 m
Radar Cross Section
Medium (>0.1 m² and <1 m²)

Expand to show TLE details & history
Last TLE update: 1 day ago

TLE from 1 day ago
0 NOAA 16 DEB
1 41343U 00055HL  26236.60950201  .00002982  00000-0  10419-2 0  9995
2 41343  98.5926 293.9762 0020811  43.8924 316.3911 14.35843245548242
Epoch: 2026-08-24T14:37Z
TLE epoch observation values (Epoch: 2026-08-24T14:37:40.973Z)
Latitude
0.00001°
Longitude
101.66673°
Altitude
764.443 km
Speed
7.478 km/s
True Right ascension
19h 35m 54s
True Declination
0° 00' 00"
Sunlit
Object was in full shadow at epoch
Visualization orbit readout
Latitude
Unknown
Longitude
Unknown
Altitude
Unknown
Speed
Unknown
Apparent Right ascension
Unknown
Apparent Declination
Unknown
Sunlit
N/A
Visualization observer readout
Local Sidereal Time
11:30:49
Azimuth
Unknown
Elevation
Unknown
Doppler factor
Unknown
Orbital elements
Apogee altitude
784.272 km
Perigee altitude
754.523 km
Semi-major axis
7,147.534 km
Eccentricity
0.00208
Inclination
98.5926°
RAAN
293.9762°
Arg. of periapsis
43.8924°
True anomaly
316.2263°
Mean anomaly
316.3911°
Eccentric anomaly
316.30873°
Mean motion
3.59177 °/min
Orbital period
100.23 mins
BSTAR
0.0010419
Loading maneuver chart data...
Computing Atmospheric mass density...
Loading historical data...
Loading historical data...
Loading historical data...
Loading historical data...
Loading historical data...
Loading historical data...
Loading historical data...

Documentation

Showing up to 5 results
|